Find STAR VIBE

NORAD ID: 55009 Int'l Des: 2023-001 Owner: SCANW Country: PL operational
LEOCIRCULARRETROGRADESSO

現在のビュー

3D地球を読み込み中...

STAR VIBEについて

説明を読み込み中...

次回通過

Passes for default location (London). Set your location on the main map for personalized predictions.

高度履歴

Loading altitude history...

軌道要素

1 55009U 23001A 26151.49689719 .00019917 00000-0 46646-3 0 9999
2 55009 97.3181 215.8985 0006430 160.5043 199.6452 15.42121594189659
Epoch: May 31, 2026 • Age: 7 hours

現在のステータス

高度 438.9 km
速度 7.65 km/s
衛星直下点 -0.66°S, 137.2°W
打ち上げ日 Jan 3, 2023
運用期間 3.4 years
タイプ other

技術仕様

分類 Payload
質量 10.00 kg
乾燥質量 10.00 kg
総質量 10.00 kg
長さ 0.30 m
直径 0.20 m
スパン 0.30 m
形状 Box+ 2 pan
製造者 GOS
バスタイプ Cubesat 6U
フェーズステータス In Orbit
所有者/国 SCANW/PL

Most Searched